Theta_e
327 318 322 317 308 309 305 306 310 310 312 316 317 323 324 326 321 318 341 346 346 355 359 359 362 362 363 363 363 363 363 362 362 362 361 360 361 361 360 360 357 353 350 347 345 343 342 342 343
318 320 318 312 306 305 306 308 309 312 314 315 316 321 323 322 333 335 339 345 350 357 358 356 361 361 362 361 362 361 362 362 362 361 360 360 360 360 358 357 355 352 348 345 344 343 341 340 339
314 318 314 309 305 305 306 310 312 314 315 316 316 320 320 319 331 337 342 348 353 356 357 358 361 360 360 360 360 360 360 361 360 360 360 360 359 358 357 355 354 352 347 345 344 343 343 341 341
314 316 312 304 301 305 309 312 310 315 315 316 315 316 319 322 327 340 346 350 354 355 355 361 361 360 360 360 359 360 360 359 359 359 359 358 358 356 355 355 353 351 349 346 345 344 343 342 342
315 312 305 302 301 303 307 310 311 312 314 314 315 313 317 320 343 346 348 350 352 354 354 358 360 360 360 358 358 359 359 358 359 359 359 358 357 356 355 355 354 352 351 348 345 344 345 344 342
308 310 301 298 300 304 308 311 312 315 315 315 315 314 317 323 342 347 349 350 353 355 356 358 360 360 359 359 358 358 357 357 357 357 357 357 356 356 355 355 353 352 351 349 346 346 346 345 343
306 305 300 300 300 302 306 312 310 312 315 314 318 314 317 321 340 347 349 351 354 356 356 357 357 358 360 359 358 357 356 356 356 356 356 356 356 355 355 355 354 353 352 350 349 347 346 345 344
307 307 300 301 300 301 307 309 311 310 311 315 319 315 316 321 342 345 347 349 351 355 355 356 357 355 355 356 359 358 357 356 356 356 356 356 356 356 355 354 354 353 351 350 350 348 347 346 345
307 301 299 301 301 303 307 305 310 311 310 311 314 316 319 327 340 340 341 344 347 351 354 355 354 356 355 354 356 358 357 357 357 355 356 353 350 351 351 351 353 353 352 351 351 350 349 348 347
303 299 299 303 305 305 305 304 306 306 307 308 311 314 320 331 334 337 336 336 341 346 350 353 354 355 355 353 356 356 355 354 354 353 354 352 353 353 350 351 351 352 353 352 352 351 350 348 342
300 298 300 302 306 306 303 304 306 305 305 307 308 311 314 323 333 335 336 336 336 343 349 352 354 357 355 354 355 355 355 355 356 356 357 356 353 352 350 350 350 352 352 349 349 349 347 347 348
299 301 302 303 305 304 303 305 303 305 306 310 311 312 313 314 326 332 335 335 335 339 347 351 354 355 356 355 354 355 353 355 354 355 358 353 351 352 351 349 349 351 349 349 348 346 349 350 350
299 300 302 304 304 303 304 301 302 303 308 310 310 310 311 313 319 331 337 339 339 339 343 349 353 355 355 355 354 355 353 354 355 355 354 351 352 351 351 349 349 348 347 345 347 349 350 350 350
300 299 300 301 302 302 301 302 302 304 309 308 309 310 311 313 317 323 333 338 341 342 343 347 351 355 354 354 355 354 354 354 354 351 350 349 353 353 350 349 347 346 346 345 346 348 349 349 349
300 297 299 301 301 301 302 299 300 306 306 307 308 310 311 314 316 317 325 337 341 344 346 346 349 351 352 352 353 354 353 352 351 352 354 355 355 354 352 348 346 344 345 345 345 347 348 347 347
297 296 294 298 299 301 301 295 302 305 304 305 306 307 308 311 317 319 323 333 340 342 345 347 346 348 350 351 353 351 350 347 348 348 352 351 351 352 350 347 345 345 346 343 342 344 345 347 346
294 292 293 295 299 299 299 295 301 304 303 304 306 307 307 309 312 319 322 325 332 338 342 347 348 347 349 350 350 351 352 349 348 350 348 348 348 349 349 347 348 349 347 346 345 346 348 346 347
290 290 292 292 297 297 297 297 301 304 302 304 304 306 307 308 311 314 317 322 328 334 339 344 347 350 349 348 349 348 347 346 345 346 348 350 346 350 350 349 350 351 350 349 348 350 351 346 346
293 292 292 295 299 296 297 298 300 303 303 304 305 306 307 309 312 313 316 320 323 329 333 338 342 348 347 345 343 343 342 344 343 345 348 348 349 351 350 351 351 351 349 348 346 348 344 344 345
293 292 292 296 298 296 297 297 300 302 302 304 304 306 307 309 311 313 315 317 323 325 332 334 339 345 347 347 348 346 346 345 343 343 348 348 347 349 350 351 350 345 343 346 343 340 338 341 343
293 292 293 293 296 296 296 294 297 300 302 303 305 306 307 307 308 310 312 316 320 324 327 331 336 340 346 350 349 343 347 347 346 345 346 346 345 345 347 346 344 344 344 341 343 336 328 327 340
291 296 296 294 292 289 295 287 295 298 299 301 304 305 307 307 310 310 312 315 318 321 325 328 332 338 340 344 343 344 341 340 344 344 346 345 347 345 344 344 341 342 337 338 337 334 333 334 335
294 296 295 294 293 291 292 289 293 296 296 299 303 305 306 308 308 308 310 313 315 317 321 326 329 330 336 340 344 343 344 346 340 344 341 345 346 346 344 344 341 339 339 340 338 340 336 335 333
298 295 293 292 291 286 292 290 291 294 297 300 303 304 305 306 308 310 313 315 315 318 319 324 327 329 331 336 338 340 342 335 333 337 336 335 338 341 342 342 343 343 343 341 342 342 343 337 338
296 293 286 285 285 285 294 290 293 298 300 302 301 303 306 308 308 309 310 312 315 317 318 320 324 326 329 330 335 335 337 335 335 333 331 332 331 332 337 339 340 340 341 340 341 343 341 342 341
295 294 287 281 283 286 291 287 292 299 302 302 303 305 306 307 309 310 311 314 315 317 317 318 320 323 327 328 330 331 331 330 330 331 328 328 330 332 337 336 337 338 338 340 342 340 340 343 342
295 290 296 289 289 286 289 293 298 300 300 301 303 305 305 307 309 310 311 312 314 317 319 319 320 321 325 326 327 327 328 328 326 329 331 328 331 328 332 335 335 337 336 335 338 337 340 341 341
295 298 290 291 282 281 288 288 290 296 298 300 302 303 304 307 308 310 310 312 313 315 318 320 321 321 323 325 326 326 326 326 325 327 328 329 330 329 330 331 333 333 332 332 336 333 333 333 333
294 292 293 293 291 284 283 288 298 297 299 300 301 302 303 305 308 309 310 311 314 315 314 317 319 319 320 322 323 324 324 322 324 325 327 329 331 330 328 329 331 329 328 330 334 332 329 329 329
296 294 294 289 286 289 288 288 300 299 300 301 301 302 304 307 308 309 309 310 311 312 312 314 315 315 318 320 318 319 322 322 322 323 326 329 329 329 328 328 328 326 324 327 328 326 325 324 322
Wind_Speed
9 10 3 1 4 3 3 4 2 2 2 3 2 3 4 6 1 2 2 12 13 20 17 17 14 14 14 16 17 17 19 19 18 18 18 17 15 14 13 12 12 12 11 10 9 9 9 9 9
7 4 0 1 3 6 5 2 4 4 5 3 3 1 1 4 2 6 11 8 17 19 17 17 14 13 14 14 15 16 17 18 18 18 17 16 14 14 13 12 11 11 11 11 11 10 10 9 8
3 3 2 1 2 7 5 6 1 1 5 2 2 3 3 3 2 7 4 15 20 18 18 17 17 15 14 15 15 16 16 16 17 17 16 15 13 12 12 12 11 11 11 11 11 11 10 10 9
2 2 4 4 6 2 2 3 5 5 3 6 1 4 0 1 3 2 15 17 20 18 16 17 16 15 14 15 14 14 15 14 16 16 16 15 14 13 12 11 10 10 11 11 11 10 10 9 8
2 1 2 2 3 2 2 6 4 2 1 5 1 3 2 3 4 9 16 17 20 18 16 16 15 16 15 15 14 13 14 14 13 15 15 15 14 13 12 11 11 10 10 11 11 10 9 8 7
2 0 4 9 4 2 2 2 5 3 4 5 5 2 2 6 6 10 13 16 19 18 16 15 14 14 15 15 13 13 13 14 15 14 13 13 13 13 12 11 11 10 9 8 8 8 7 7 7
4 3 4 3 3 2 2 1 1 4 3 4 1 4 1 2 8 10 12 15 16 17 17 15 15 14 13 13 14 13 11 12 14 14 14 13 12 11 11 10 10 9 8 8 8 7 7 7 6
3 3 6 5 6 4 1 1 2 9 3 10 1 3 4 3 12 11 10 13 14 15 16 15 14 15 15 14 14 14 14 11 8 7 8 10 12 11 11 9 9 8 7 7 7 7 7 7 7
2 5 9 9 6 3 1 3 2 5 5 8 8 5 5 8 12 13 11 12 13 13 14 15 15 15 14 13 13 12 14 14 11 9 7 6 7 9 10 8 8 9 8 7 6 7 7 7 8
4 5 8 3 4 3 1 3 6 5 7 6 7 10 5 6 10 14 15 15 16 17 17 15 14 14 14 11 12 12 11 10 11 11 11 9 8 7 6 5 8 8 8 7 7 7 8 8 5
4 7 5 4 8 6 3 5 3 5 9 4 7 13 11 3 8 11 13 17 22 18 14 17 16 15 15 12 10 8 8 8 8 11 10 8 6 6 6 4 5 6 8 6 7 6 6 6 5
5 6 6 4 6 6 11 4 4 8 12 12 14 13 13 13 11 13 13 14 16 20 20 18 18 17 16 10 10 10 9 9 8 9 10 6 5 6 6 5 5 5 4 5 5 4 5 6 6
6 4 5 8 9 9 9 10 9 7 14 13 11 10 13 14 13 11 11 10 12 16 18 18 18 17 15 14 11 11 10 9 9 7 7 6 6 6 6 5 5 5 5 4 4 5 5 6 7
4 4 6 6 9 6 7 12 4 5 10 10 9 8 8 12 16 13 11 13 14 14 17 17 19 16 17 14 14 11 10 10 9 6 6 6 5 4 4 5 5 4 5 7 5 5 5 5 7
3 4 4 9 5 6 6 11 7 8 5 10 8 9 4 9 13 16 17 14 16 17 14 18 19 17 16 17 14 11 11 11 9 10 11 8 6 5 5 5 6 5 5 8 7 7 7 5 6
3 2 5 2 3 3 7 13 9 3 2 6 8 8 8 4 9 13 13 12 10 11 15 14 14 18 16 14 13 11 11 8 8 8 10 12 11 9 7 6 7 5 6 5 7 7 7 7 6
1 6 7 6 4 2 6 1 4 3 2 5 6 8 9 9 6 10 13 14 13 14 13 16 17 19 20 16 13 13 14 12 11 10 9 17 13 13 10 7 6 6 5 4 5 6 6 7 7
4 4 4 6 2 2 8 10 11 10 5 6 6 7 7 9 13 9 11 13 14 12 11 12 13 14 16 12 11 10 11 11 10 11 11 9 9 12 12 11 10 8 3 2 4 7 5 6 8
1 4 8 10 10 6 11 10 12 10 8 10 8 5 7 8 8 8 8 11 12 12 12 13 13 14 12 12 13 12 13 12 11 11 12 14 10 15 11 9 10 10 10 8 4 5 6 6 4
5 6 9 10 11 7 10 12 10 10 11 10 9 8 9 7 8 10 8 8 10 13 13 13 14 13 14 11 11 9 11 11 11 10 12 13 12 10 9 9 8 8 6 7 7 7 2 7 5
6 7 5 7 4 4 7 11 10 8 8 10 12 11 9 10 11 11 10 7 9 12 13 13 14 13 13 13 9 6 7 4 9 12 12 13 13 12 13 12 8 7 5 5 5 6 5 5 10
11 14 12 9 6 11 2 11 10 9 11 10 11 10 11 13 11 8 10 11 9 11 10 12 13 15 14 12 12 14 14 14 13 13 12 11 15 15 13 10 10 9 5 5 5 7 9 10 11
8 4 5 7 9 5 10 9 11 6 11 14 15 14 11 10 10 13 13 13 14 9 10 11 13 14 15 15 15 12 12 10 8 6 11 10 10 12 13 12 11 9 7 8 10 11 12 13 13
2 7 3 2 5 12 15 13 8 11 12 13 10 8 9 12 12 14 13 13 13 13 9 10 13 16 16 17 18 18 15 12 9 9 10 8 7 8 10 11 11 11 11 11 11 13 15 14 12
7 9 7 7 9 13 8 14 13 9 13 16 12 11 11 11 10 11 12 14 15 15 14 10 13 17 17 19 19 18 16 12 12 11 9 9 8 8 9 10 10 9 9 8 9 11 10 8 7
8 8 9 10 8 9 1 9 6 7 10 6 4 9 9 10 9 10 11 12 13 14 13 12 13 16 15 17 17 14 13 9 9 10 8 8 7 7 8 8 8 9 10 9 9 7 8 8 7
10 10 7 13 5 8 9 11 9 9 6 3 6 9 11 11 12 12 11 11 11 11 11 11 12 13 14 15 11 11 10 10 9 10 9 8 8 8 9 9 9 10 10 11 10 8 9 7 6
7 5 5 5 8 16 8 7 7 7 6 3 6 10 16 13 13 11 11 10 11 11 9 8 6 9 12 13 11 10 11 11 9 7 10 11 10 10 11 11 11 10 10 10 10 8 7 6 4
6 6 4 5 4 8 12 7 3 1 1 6 6 12 14 16 15 13 12 10 9 8 10 7 4 4 4 4 4 6 8 7 6 7 10 10 10 11 11 10 10 9 9 8 8 7 6 6 4
5 8 4 7 5 5 7 9 1 2 3 7 15 15 16 10 13 13 11 10 10 11 11 6 7 7 4 4 4 6 7 7 8 10 8 9 11 11 11 11 11 10 9 8 8 7 5 5 5
Wind_Direction
324 325 307 252 227 262 147 133 294 355 187 95 322 274 93 54 278 17 17 160 150 152 155 161 161 159 149 139 136 138 137 140 143 137 137 138 143 149 150 149 152 149 143 136 132 125 120 121 125
328 329 26 98 235 200 137 158 104 31 351 308 130 196 27 84 43 109 128 153 154 150 154 159 160 158 148 139 136 134 139 142 141 138 139 141 149 150 153 151 154 152 149 145 138 131 130 129 127
307 3 286 187 157 209 151 185 126 355 20 94 113 45 2 24 66 154 135 151 153 156 159 158 158 158 152 146 143 142 144 144 141 140 142 147 152 155 157 156 156 154 151 145 140 137 135 130 132
338 148 114 241 180 208 162 139 351 336 107 61 98 73 247 7 299 117 140 149 156 156 162 150 152 151 153 150 151 149 145 147 145 147 149 153 158 161 160 158 159 159 154 151 148 143 140 140 139
49 60 214 236 202 179 243 315 323 298 344 95 110 69 36 80 52 135 145 155 158 156 162 158 152 149 151 156 157 157 153 151 153 156 157 161 164 165 164 163 165 162 160 158 154 151 148 147 152
130 263 204 226 225 188 235 282 293 197 187 133 91 99 3 109 125 145 150 161 161 155 161 161 156 153 153 157 162 164 165 161 162 165 167 167 167 170 171 170 168 165 165 162 158 158 160 168 171
197 175 214 195 254 279 194 354 4 307 226 73 22 123 98 91 119 145 151 158 162 161 162 166 171 161 156 162 166 166 174 177 173 170 170 168 175 179 176 178 174 172 169 166 169 177 185 190 195
127 201 174 206 217 238 52 61 110 25 360 336 330 201 176 135 140 133 148 156 165 168 168 170 175 177 178 176 174 171 168 176 180 175 181 180 179 185 186 177 184 182 183 183 184 195 208 209 216
154 199 212 213 190 177 92 14 123 317 309 330 336 313 22 120 145 136 144 160 169 176 177 180 180 182 184 184 184 180 179 171 168 174 178 193 209 203 193 195 177 188 193 200 199 218 231 239 243
193 219 212 219 205 225 229 316 341 308 304 296 308 353 37 143 183 165 174 176 185 185 187 184 186 189 186 185 188 194 196 192 192 194 190 198 206 215 234 215 204 206 204 206 206 227 244 243 263
146 224 194 220 237 265 269 277 257 284 289 249 300 308 310 246 216 216 196 189 192 186 191 190 186 190 192 192 189 190 192 195 199 199 198 198 208 217 220 224 215 218 204 221 204 210 241 265 273
199 218 211 221 225 254 269 289 272 250 263 269 269 281 286 286 234 229 217 208 194 193 195 191 191 190 192 192 193 197 198 195 197 201 202 196 212 212 230 237 229 240 228 232 238 229 227 250 256
208 219 212 237 249 252 267 257 255 250 261 278 270 259 259 268 263 229 227 225 215 207 200 200 194 193 191 191 196 197 198 203 197 191 201 212 227 231 232 234 255 262 270 248 251 256 248 252 257
186 223 258 259 245 237 243 264 187 246 263 274 287 280 264 257 248 255 225 221 214 214 208 197 203 199 187 195 199 196 190 188 193 174 170 183 225 260 279 280 276 273 283 284 272 267 267 273 283
144 250 263 238 240 242 189 257 241 250 291 282 293 303 294 260 266 252 247 227 216 212 208 202 199 196 199 195 198 196 194 188 189 191 188 190 193 213 261 279 277 275 276 283 275 273 258 248 262
198 217 245 161 198 246 207 263 274 275 335 301 321 321 316 282 267 270 262 251 233 234 214 203 201 203 202 202 195 197 197 192 191 198 181 178 184 191 210 234 253 254 267 266 278 272 268 266 244
118 244 235 283 202 237 222 313 311 297 271 291 308 314 312 310 281 262 259 246 239 231 228 211 202 207 207 203 197 196 199 205 202 213 205 167 186 174 194 212 230 220 262 264 272 269 270 284 274
174 212 223 254 108 210 282 286 285 280 276 288 287 293 301 306 295 300 286 268 253 236 228 228 219 213 201 198 198 203 213 216 212 206 206 194 185 169 196 182 199 192 178 287 302 287 296 286 297
208 261 276 277 277 302 282 282 279 282 288 286 288 273 286 281 291 303 290 275 260 239 231 228 222 213 198 194 195 197 207 213 218 214 208 215 206 199 187 187 169 183 159 159 103 310 298 289 279
232 267 270 284 277 206 275 271 269 272 278 275 284 267 262 257 282 297 308 282 261 250 236 229 229 221 212 206 198 199 207 211 215 220 216 216 213 206 204 196 196 169 161 157 142 135 64 332 295
228 223 231 259 318 233 278 270 259 246 248 258 264 281 281 256 278 290 298 279 278 260 240 237 226 221 226 227 198 160 152 173 196 210 211 213 215 212 214 209 204 201 208 187 189 106 96 307 260
245 213 242 258 262 277 235 286 263 256 249 251 264 258 253 283 284 285 282 285 255 256 261 248 237 220 210 207 211 205 194 196 207 203 207 214 216 217 225 234 231 221 199 189 192 150 171 207 259
262 185 251 262 263 266 242 258 275 221 245 252 256 257 264 265 288 294 290 288 293 278 258 252 244 228 217 204 206 205 211 204 192 191 200 201 204 216 213 214 211 204 201 202 189 194 204 193 228
286 275 267 189 251 250 256 249 257 255 257 275 263 254 277 295 300 297 291 289 284 287 265 242 233 235 218 209 204 207 210 195 181 188 193 191 199 204 210 215 224 227 225 215 215 223 210 216 204
238 271 273 248 225 259 280 261 263 259 255 267 295 309 311 318 312 308 304 306 301 292 290 263 241 237 220 210 203 206 206 191 185 173 185 181 185 196 193 199 202 207 213 221 218 210 212 218 209
226 242 255 268 259 274 194 254 260 252 278 274 359 342 334 334 342 337 324 311 308 310 302 281 263 251 229 215 205 197 192 189 193 189 181 192 193 191 185 199 197 190 189 193 196 199 211 207 208
256 231 274 262 256 259 249 255 260 245 252 357 355 359 354 343 332 328 331 328 314 316 304 282 270 261 240 215 198 187 185 190 183 177 177 177 178 172 178 191 196 190 186 185 184 196 192 192 184
229 148 203 209 269 269 245 265 259 261 266 328 336 352 345 331 318 327 324 329 335 317 301 281 268 267 243 207 193 194 190 195 191 183 182 178 179 179 181 182 194 196 198 200 196 187 184 196 200
241 225 228 288 236 267 280 260 115 257 270 316 343 328 330 329 321 318 322 318 310 335 323 303 256 173 240 196 214 242 222 209 210 216 187 192 177 184 187 190 197 208 213 207 201 202 195 200 207
256 276 259 231 225 253 291 272 38 356 355 340 320 322 321 331 333 327 327 333 332 335 333 4 59 15 6 248 222 236 247 217 206 226 235 219 200 191 193 192 200 208 215 209 209 200 185 199 202